Home > Time Zones > World Clock > Weather > Norway > Alta > Past weeks

Flag for Norway Weather past 2 weeks in Alta, Norway

Now
28 °F

Chilly.


Feels Like: 24 °F
Forecast: 29 / 40 °F
Wind: 3 mph from South

Location: Alta Lufthavn

Current Time: Mar 27, 2015 at 6:58:34 AM

Latest Report: Mar 27, 2015 at 6:00 AM


Visibility: N/A

Pressure: 29.96 "Hg

Humidity: 51%

Dew point: 12 °F

Location of AltaLocation

Historic Weather in Alta — Graph

°F

Alta temperature yesterday

Maximum temperature yesterday: 33 °F (at 2:00 PM)
Minimum temperature yesterday: 15 °F (at 4:00 AM)
Average temperature yesterday: 25 °F

Past Weeks' High & Low Weather Summary

 TemperatureHumidityPressure
High50 °F (Mar 16, 1:00 PM)92% (Mar 20, 12:00 AM)30.76 "Hg (Mar 20, 12:00 AM)
Low8 °F (Mar 25, 1:00 AM)30% (Mar 16, 3:00 PM)29.29 "Hg (Mar 23, 12:00 AM)
Average31 °F65%30.06 "Hg
* Reported Mar 12 5:00 AM — Mar 27 5:00 AM, Alta, Weather by CustomWeather, © 2015

Note: Actual official high and low records may vary slightly from our data, if they occured in-between our weather recording intervals... More about our weather records

Advertising

Alta weather history for previous 24 hours

 ConditionsComfort  
Time TempWeatherWind HumidityBarometerVisibility
5:00 AM
Fri, Mar 27
26 °FChilly.8 mph50%29.97 "HgN/A
3:00 AM25 °FChilly.6 mph52%29.99 "HgN/A
2:00 AM24 °FCold.5 mph58%30.00 "HgN/A
1:00 AM25 °FCold.6 mph56%30.01 "HgN/A
12:00 AM25 °FChilly.8 mph55%30.05 "HgN/A
11:00 PM
Thu, Mar 26
26 °FChilly.5 mph50%30.06 "HgN/A
9:00 PM27 °FChilly.3 mph49%30.08 "HgN/A
8:00 PM26 °FChilly.6 mph46%30.09 "HgN/A
7:00 PM27 °FChilly.7 mph43%30.10 "HgN/A
6:00 PM29 °FChilly.5 mph42%30.12 "HgN/A
5:00 PM29 °FChilly.6 mph42%30.13 "HgN/A
4:00 PM30 °FChilly.3 mph44%30.15 "HgN/A
3:00 PM31 °FChilly.6 mph55%30.16 "HgN/A
2:00 PM33 °FChilly.7 mph54%30.16 "HgN/A
1:00 PM32 °FChilly.6 mph57%30.17 "HgN/A
12:00 PM32 °FChilly.7 mph60%30.18 "HgN/A
11:00 AM33 °FChilly.5 mph55%30.18 "HgN/A
10:00 AM30 °FChilly.2 mph71%30.19 "HgN/A
9:00 AM28 °FChilly.2 mph70%30.20 "HgN/A
8:00 AM26 °FChilly.No wind69%30.20 "HgN/A
7:00 AM21 °FCold.1 mph79%30.19 "HgN/A
6:00 AM17 °FCold.2 mph86%30.17 "HgN/A
Weather by CustomWeather, © 2015

See weather overviewHow to use our weather pages